Regional Weather Roundup
Issued by NWS

Home | Current Version | Previous Version | Graphics & Text | Print | Product List | Glossary On
Versions: 1 2 3 4 5 6 7 8 9 10 11 12 13 14 15 16 17 18 19 20 21 22 23 24 25 26 27 28 29 30 31 32 33 34 35 36 37 38 39 40 41 42 43 44 45 46 47 48 49 50
000
ASUS43 KMPX 281101
RWRMN
WEATHER ROUNDUP FOR MINNESOTA
NATIONAL WEATHER SERVICE TWIN CITIES/CHANHASSEN MN
600 AM CDT SAT MAR 28 2015


NOTE: "FAIR" INDICATES FEW OR NO CLOUDS BELOW 12,000 FEET WITH NO
SIGNIFICANT WEATHER AND/OR OBSTRUCTIONS TO VISIBILITY. N/A MEANS
CURRENT SKY AND/OR WEATHER CONDITIONS ARE NOT AVAILABLE.

MNZ060>063-068>070-281200-
   Twin Cities Metro

CITY           SKY/WX    TMP DP  RH WIND       PRES   REMARKS
TWIN CITIES    CLEAR     21   9  59 SE6       30.21R WCI  13
ST PAUL        CLEAR     21  13  71 S3        30.23R
CRYSTAL        CLEAR     20  11  68 CALM      30.20R
BLAINE         CLEAR     18  12  79 CALM      30.20R
LAKEVILLE      CLEAR     14  10  85 CALM      30.20R
EDEN PRAIRIE   CLEAR     21   9  59 SE5       30.19R WCI  15
SOUTH ST PAUL  CLEAR     20  12  72 CALM      30.22R
LAKE ELMO      FAIR      18  14  86 CALM      30.22R
$$
MNZ001>005-007-008-013>017-022>024-027-028-281200-
   Northwest Minnesota

CITY           SKY/WX    TMP DP  RH WIND       PRES   REMARKS
BEMIDJI        CLEAR     11   6  79 CALM      30.12S
HALLOCK        PTCLDY    21  18  86 SE9       30.08F WCI  11
ROSEAU         CLEAR     19  12  73 SE7       30.10F WCI  10
WARROAD        PTCLDY    23  16  74 S3        30.11F
THIEF RVR FALL CLEAR     23  16  74 S5        30.11R WCI  17
CROOKSTON      PTCLDY    21  16  79 SE9       30.12S WCI  11
FOSSTON        CLEAR     19  12  73 SE7       30.11S WCI  10
DETROIT LAKES  CLEAR     21  18  86 SE7       30.12S WCI  13
MOORHEAD       PTCLDY    25  19  80 SE9       30.12S WCI  15
PARK RAPIDS    CLEAR     20  11  68 S5        30.12R WCI  13
MAHNOMEN       FAIR      19  12  73 SE7       30.11S WCI  10
$$
MNZ006-009>011-018-025>026-281200-
   North Central Minnesota

CITY           SKY/WX    TMP DP  RH WIND       PRES   REMARKS
BAUDETTE       CLEAR     15  11  83 SE3       30.11S
FLAG ISLAND    PTCLDY    12   7  79 CALM      30.11S
INTL FALLS     CLEAR     11   6  81 CALM      30.13S
WASKISH        CLEAR     12  10  92 CALM      30.13R
BIG FORK       CLEAR     12   7  79 CALM      30.14R
LONGVILLE      CLEAR     12   9  85 CALM      30.15R
GRAND RAPIDS   CLEAR     12   5  73 CALM      30.14R
CRANE LAKE     CLEAR      9   7  92 CALM      30.18R
ORR            CLEAR     14   7  73 CALM      30.13R
COOK           CLEAR      9   5  85 CALM      30.16R
WALKER         FAIR      17   9  69 CALM      30.13R
$$
MNZ012-019>021-037-281200-
   Northeast Minnesota

CITY           SKY/WX    TMP DP  RH WIND       PRES   REMARKS
DULUTH         CLEAR     14   8  77 CALM      30.16R
ELY            CLEAR      5   1  85 CALM      30.16R
HIBBING        FAIR       6   2  83 CALM      30.16R
EVELETH        CLEAR      9   5  85 CALM      30.18R
DULUTH HARBOR  CLEAR     19  12  73 CALM      30.23R
TWO HARBORS    CLEAR     12   7  79 N3        30.17S
SILVER BAY     CLEAR      9   3  78 CALM      30.17S
GRAND MARAIS     N/A     10   6  84 NW6       30.23R WCI   0
G MARAIS ARPRT PTCLDY    -2  -8  78 W3        30.14R
$$
MNZ029>031-032-039>041-046>048-054>057-064-281200-
   West Central Minnesota

CITY           SKY/WX    TMP DP  RH WIND       PRES   REMARKS
FERGUS FALLS   CLEAR     23  16  74 SE8       30.15S WCI  14
WHEATON        CLOUDY    25  23  93 SE9       30.14R WCI  15
MORRIS         CLEAR     25  21  86 SE8       30.13R WCI  16
ALEXANDRIA     CLOUDY    24  16  71 SE7       30.14R WCI  16
ELBOW LAKE     FAIR      22  17  83 SE7       30.13R WCI  13
WADENA         CLEAR     19  14  79 SE3       30.13S
GLENWOOD       CLOUDY    25  18  74 SE5       30.14R WCI  19
APPLETON       CLOUDY    30  27  86 SE7       30.13S WCI  23
BENSON         PTCLDY    27  21  80 S6        30.14S WCI  20
ORTONVILLE     CLEAR     27  23  86 SE8       30.12R WCI  18
MADISON        CLOUDY    30  27  86 SE6       30.13S WCI  24
WILLMAR        CLOUDY    28  21  74 SE6       30.16S WCI  22
$$
MNZ033>034-036-042>043-049>051-058-059-281200-
   Central Minnesota

CITY           SKY/WX    TMP DP  RH WIND       PRES   REMARKS
ST CLOUD       CLEAR     21  10  62 SE5       30.18R WCI  15
SAUK CENTRE    FAIR      22  15  74 SE3       30.16R
PAYNESVILLE    CLEAR     20  14  75 E5        30.16S WCI  14
AITKIN         CLEAR     14   9  79 CALM      30.15R
PINE RIVER     CLEAR     14  10  85 CALM      30.18R
BRAINERD       CLEAR     13  10  88 CALM      30.16S
STAPLES        CLEAR     16  10  79 CALM      30.15R
LONG PRAIRIE   FAIR      21  16  79 CALM      30.16R
LITTLE FALLS   CLEAR     18  12  79 CALM      30.17R
LITCHFIELD     CLEAR     25  16  68 CALM      30.17S
BUFFALO        CLEAR     19  16  86 CALM      30.19S
MAPLE LAKE     CLEAR     20  18  89 CALM      30.19R
$$
MNZ037-044-045-052-053-281200-
   East Central Minnesota

CITY           SKY/WX    TMP DP  RH WIND       PRES   REMARKS
PRINCETON      CLEAR     16  12  86 CALM      30.18S
MORA           CLEAR     14  12  92 CALM      30.20S
CAMBRIDGE      CLEAR     18  10  73 CALM      30.18S
RUSH CITY      CLEAR     16  13  86 CALM      30.21R
MOOSE LAKE     CLEAR     12   9  85 CALM      30.17R
HINCKLEY       FAIR      16  12  86 CALM      30.19R
CLOQUET        CLEAR     10   9  92 CALM      30.17R
MCGREGOR       CLEAR     14  10  85 CALM      30.17R
$$
MNZ071>073-080-081-089-090-097-098-281200-
   Southwest Minnesota

CITY           SKY/WX    TMP DP  RH WIND       PRES   REMARKS
MONTEVIDEO     CLOUDY    28  27  93 S8        30.15S WCI  20
GRANITE FALLS  CLOUDY    29  26  86 SE8       30.16S WCI  21
CANBY          CLOUDY    29  27  94 SE6       30.13S WCI  23
MARSHALL       CLOUDY    28  23  80 SE8       30.14R WCI  20
REDWOOD FALLS  CLOUDY    29  25  85 SE8       30.15S WCI  21
OLIVIA         PTCLDY    27  23  86 SE5       30.15S WCI  21
PIPESTONE      CLOUDY    28  27  93 S8        30.08S WCI  20
WINDOM         CLOUDY    28  27  93 CALM      30.14R
WORTHINGTON    CLOUDY    28  21  74 S7        30.12S WCI  21
JACKSON        CLOUDY    30  28  93 E6        30.14R WCI  24
TRACY          CLOUDY    29  27  93 SE5       30.13R WCI  24
SLAYTON        CLOUDY    27  26  94 CALM      30.12R
$$
MNZ065>067-074>077-082>085-091>093-281200-
   South Central Minnesota

CITY           SKY/WX    TMP DP  RH WIND       PRES   REMARKS
MANKATO        CLOUDY    25  16  68 SE7       30.18S WCI  17
NEW ULM        CLOUDY    27  19  74 SE5       30.17S WCI  21
ST JAMES       CLOUDY    28  25  86 E6        30.18R WCI  22
FAIRMONT       CLOUDY    27  18  69 SE7       30.15S WCI  19
GLENCOE        CLOUDY    20  14  77 E3        30.18R
FARIBAULT      CLEAR     18  10  73 CALM      30.20R
OWATONNA       CLEAR     19  10  68 CALM      30.19R
WASECA         CLOUDY    21  16  79 CALM      30.20R
ALBERT LEA     CLOUDY    25  18  74 SE5       30.18R WCI  19
$$
MNZ078>079-086>088-094>096-281200-
   Southeast Minnesota

CITY           SKY/WX    TMP DP  RH WIND       PRES   REMARKS
ROCHESTER      CLEAR     16   8  71 SE5       30.20R WCI   9
RED WING       CLEAR     18  12  79 CALM      30.22R
STANTON        CLEAR     15  10  80 CALM      30.20R
DODGE CENTER   PTCLDY    14  10  85 SE6       30.18S WCI   5
WINONA         PTCLDY    19  16  86 CALM      30.24R
AUSTIN         CLOUDY    21  16  79 CALM      30.19R
PRESTON        PTCLDY    17   8  69 CALM      30.21R
$$
ABBREVIATIONS USED IN REMARKS
   TC - TEMPERATURES IN CELSIUS
  WCI - WIND CHILL INDEX
   HX - HEAT INDEX
  VSB - VISIBILITY
$$


USA.gov is the U.S. government's official web portal to all federal, state and local government web resources and services.